This demonstration page uses our WeatherBlox Daily Observations layout. Learn more.

Left ArrowRight Arrow

34.02893, -84.19858

Hourly Observations for December 28, 2018

Temp ( °F °C ) Dew Point ( °F °C ) Humidity (%) Winds ( mph kmh ) Pressure ( in mb ) Visibility ( mi km ) Precip ( " mm )
12:29 am 00:29 Cloudy with Heavy Rain 48 8.9 47 8.3 96 96 NW 12 19 30.15 1021 2 3 0.22 5.59
12:39 am 00:39 Cloudy with Heavy Rain 48 8.9 47 8.3 96 96 NNW 9 15 30.12 1020 2 3 0.31 7.87
12:43 am 00:43 Cloudy with Heavy Rain 48 8.9 47 8.3 96 96 NNW 10 17 30.12 1020 2 3 0.33 8.38
12:46 am 00:46 Cloudy with Rain 48 8.9 47 8.3 96 96 NNW 12 19 30.12 1020 2 3 0.35 8.89
12:53 am 00:53 Cloudy with Nearby Thunderstorms 48 8.9 47 8.3 96 96 N 12 19 30.10 1019 2 3 0.39 9.91
1:15 am 01:15 Cloudy with Rain 48 8.9 47 8.3 96 96 N 13 20 30.06 1018 2 2 0.12 3.05
1:43 am 01:43 Cloudy with Heavy Rain 48 8.9 47 8.3 96 96 ENE 8 13 30.03 1017 2 2 0.41 10.41
1:51 am 01:51 Cloudy with Light Rain 48 9 46 8 94 94 ENE 9 15 30.03 1017 3 5 0.43 10.92
1:53 am 01:53 Cloudy with Light Rain 48 8.9 47 8.3 96 96 ENE 7 11 30.05 1018 3 5 0.43 10.92
2:10 am 02:10 Cloudy with Rain 48 8.9 48 8.9 100 100 ENE 5 7 30.03 1017 3 4 0.05 1.27
2:20 am 02:20 Cloudy with Light Rain 48 8.9 48 8.9 100 100 VRB 3 6 30.03 1017 4 6 0.06 1.52
2:28 am 02:28 Cloudy with Light Rain 48 8.9 48 8.9 100 100 VRB 5 7 30.03 1017 3 5 0.08 2.03
2:34 am 02:34 Cloudy with Rain 48 8.9 48 8.9 100 100 ENE 5 7 30.03 1017 3 4 0.09 2.29
2:43 am 02:43 Cloudy with Light Rain 48 8.9 48 8.9 100 100 ENE 6 9 30.06 1018 4 6 0.10 2.54
2:53 am 02:53 Cloudy with Rain 48 8.9 48 8.9 100 100 VRB 6 9 30.05 1018 3 5 0.12 3.05
3:01 am 03:01 Cloudy with Rain 48 8.9 48 8.9 100 100 E 3 6 30.06 1018 2 3 0.04 1.02
3:14 am 03:14 Cloudy with Light Rain 48 8.9 48 8.9 100 100 VRB 3 6 30.03 1017 2 3 0.07 1.78
3:49 am 03:49 Cloudy with Light Rain 48 9 48 9 100 100 Calm 30.03 1017 6 10 0.11 2.79
3:53 am 03:53 Cloudy with Rain 48 8.9 48 8.9 100 100 VRB 3 6 30.04 1017 3 5 0.12 3.05
3:58 am 03:58 Cloudy with Rain 48 8.9 48 8.9 100 100 VRB 5 7 30.03 1017 2 3 0.02 0.51
4:05 am 04:05 Cloudy with Light Rain 48 8.9 48 8.9 100 100 ENE 5 7 30.03 1017 3 5 0.02 0.51
4:15 am 04:15 Cloudy with Light Rain 48 8.9 48 8.9 100 100 VRB 3 6 30.03 1017 5 8 0.02 0.51
4:41 am 04:41 Cloudy with Light Rain 49 9.4 48 8.9 97 97 E 5 7 30.00 1016 2 3 0.06 1.52
4:53 am 04:53 Cloudy with Light Rain 49 9.4 48 8.9 97 97 VRB 5 7 30.01 1016 3 4 0.08 2.03
5:04 am 05:04 Cloudy with Light Rain 49 9.4 49 9.4 100 100 VRB 3 6 30.00 1016 3 5 0.01 0.25
5:16 am 05:16 Cloudy with Heavy Rain 49 9.4 48 8.9 97 97 ENE 3 6 30.00 1016 2 3 0.07 1.78
5:20 am 05:20 Cloudy with Light Rain 49 9.4 49 9.4 100 100 Calm 30.00 1016 2 3 0.08 2.03
5:34 am 05:34 Cloudy with Heavy Rain 49 9.4 49 9.4 100 100 E 6 9 30.00 1016 1 2 0.23 5.84
5:53 am 05:53 Cloudy with Heavy Rain 49 9.4 49 9.4 100 100 VRB 3 6 30.01 1016 2 2 0.41 10.41
6:15 am 06:15 Cloudy with Heavy Rain 50 10 49 9.4 96 96 VRB 5 7 29.97 1015 1 1 0.31 7.87
6:28 am 06:28 Cloudy with Rain 50 10 50 10 100 100 VRB 3 6 30.00 1016 2 3 0.41 10.41
6:42 am 06:42 Cloudy with Rain 50 10 50 10 100 100 ENE 6 9 29.97 1015 2 3 0.52 13.21
6:46 am 06:46 Cloudy with Nearby Thunderstorms 50 10 50 10 100 100 VRB 5 7 29.97 1015 3 5 0.53 13.46
6:53 am 06:53 Cloudy with Nearby Thunderstorms 50 10 50 10 100 100 VRB 5 7 30.00 1016 4 6 0.53 13.46
7:00 am 07:00 Cloudy with Light Rain 50 10 50 10 100 100 WNW 6 9 30.00 1016 5 8 0.01 0.25
7:06 am 07:06 Cloudy with Rain 50 10 50 10 100 100 E 3 6 30.00 1016 3 4 0.04 1.02
7:10 am 07:10 Cloudy with Nearby Thunderstorms 51 10.6 51 10.6 100 100 NNE 3 6 30.00 1016 2 3 0.06 1.52
7:21 am 07:21 Cloudy with Strong Thunderstorms 51 10.6 51 10.6 100 100 N 3 6 30.00 1016 1 2 0.15 3.81
7:33 am 07:33 Cloudy with Nearby Thunderstorms 51 10.6 51 10.6 100 100 E 7 11 30.00 1016 1 1 0.33 8.38
7:37 am 07:37 Cloudy with Nearby Thunderstorms 52 11.1 52 11.1 100 100 ESE 6 9 30.00 1016 2 3 0.37 9.40
7:53 am 07:53 Cloudy with Light Rain 52 11.1 52 11.1 100 100 VRB 3 6 30.01 1016 2 3 0.41 10.41
8:00 am 08:00 Cloudy with Light Rain 52 11.1 52 11.1 100 100 ESE 5 7 30.00 1016 7 11 0.01 0.25
8:26 am 08:26 Cloudy with Light Rain 52 11.1 52 11.1 100 100 Calm 30.03 1017 4 6 0.05 1.27
8:33 am 08:33 Cloudy with Rain 53 11.7 52 11.1 96 96 undefined N/A 30.00 1016 2 3 0.09 2.29
8:36 am 08:36 Cloudy with Rain 53 11.7 52 11.1 96 96 undefined N/A 30.00 1016 4 6 0.10 2.54
8:53 am 08:53 Cloudy with Rain 53 11.7 53 11.7 100 100 undefined N/A 30.04 1017 4 6 0.12 3.05
9:53 am 09:53 Cloudy with Heavy Rain 55 12.8 55 12.8 100 100 W 5 7 30.06 1018 1 1 0.35 8.89
10:53 am 10:53 Cloudy with Light Rain 55 12.8 55 12.8 100 100 Calm 30.04 1017 1 1 0.13 3.30
10:59 am 10:59 Cloudy with Light Rain 56 13.3 56 13.3 100 100 SSE 3 6 30.03 1017 2 3 0.00 0.03
11:07 am 11:07 Cloudy with Mist and Fog 55 12.8 55 12.8 100 100 ESE 3 6 30.03 1017 1 1 0.00 0.03
11:14 am 11:14 Mostly Cloudy with Fog 56 13.3 56 13.3 100 100 SE 5 7 30.03 1017 1 1 0.00 0.03
11:24 am 11:24 Cloudy with Light Rain 56 13.3 56 13.3 100 100 SE 5 7 30.03 1017 1 1 0.00 0.03
11:31 am 11:31 Cloudy with Light Rain 57 13.9 57 13.9 100 100 SE 6 9 30.03 1017 2 3 0.01 0.25
11:38 am 11:38 Cloudy with Light Rain 57 13.9 57 13.9 100 100 SE 6 9 30.00 1016 3 5 0.01 0.25
11:53 am 11:53 Cloudy with Rain 58 14.4 58 14.4 100 100 SE 7 11 29.98 1015 3 5 0.04 1.02
11:56 am 11:56 Cloudy with Rain 58 14.4 58 14.4 100 100 ESE 9 15 29.97 1015 2 3 0.01 0.25
12:04 pm 12:04 Cloudy with Light Rain 58 14.4 58 14.4 100 100 VRB 5 7 29.97 1015 2 3 0.02 0.51
12:53 pm 12:53 Sunny 61 16.1 59 15 93 93 S 5 7 29.95 1014 10 16 0.02 0.51
1:53 pm 13:53 Sunny 60 15.6 59 15 96 96 WNW 5 7 29.98 1015 8 13 0.00 0.00
2:53 pm 14:53 Partly Cloudy 59 15 59 15 100 100 S 3 6 30.01 1016 8 13 0.00 0.00
3:53 pm 15:53 Partly Cloudy 60 15.6 59 15 96 96 WNW 6 9 30.04 1017 8 13 0.00 0.00
4:07 pm 16:07 Mostly Cloudy 60 15.6 59 15 96 96 Calm 30.03 1017 8 13 0.00 0.00
4:36 pm 16:36 Partly Cloudy with Mist and Fog 59 15 58 14.4 96 96 WNW 8 13 30.06 1018 4 6 0.00 0.00
4:48 pm 16:48 Mostly Cloudy 59 15 57 14 94 94 NW 6 9 30.06 1018 8 13 0.00 0.00
4:53 pm 16:53 Partly Cloudy 59 15 58 14.4 96 96 E 3 6 30.02 1017 7 11 0.00 0.00
5:51 pm 17:51 Mostly Cloudy 57 14 55 13 94 94 Calm 30.06 1018 10 16 0.00 0.00
5:53 pm 17:53 Mostly Cloudy 58 14.4 56 13.3 93 93 SSW 3 6 30.06 1018 10 16 0.00 0.00
6:53 pm 18:53 Cloudy 58 14.4 57 13.9 97 97 Calm 30.06 1018 9 14 0.00 0.00
7:53 pm 19:53 Cloudy 57 13.9 56 13.3 96 96 W 3 6 30.07 1018 8 13 0.00 0.00
8:41 pm 20:41 Partly Cloudy 56 13.3 55 12.8 97 97 WNW 3 6 30.09 1019 9 14 0.00 0.00
8:53 pm 20:53 Mostly Cloudy 55 12.8 54 12.2 96 96 WSW 3 6 30.09 1019 9 14 0.00 0.00
9:40 pm 21:40 Partly Cloudy with Mist and Fog 54 12.2 53 11.7 97 97 Calm 30.12 1020 6 10 0.00 0.00
9:53 pm 21:53 Clear with Mist and Fog 53 11.7 53 11.7 100 100 SW 3 6 30.11 1020 5 8 0.00 0.00
10:04 pm 22:04 Clear with Mist and Fog 52 11.1 52 11.1 100 100 WSW 3 6 30.12 1020 1 2 0.00 0.00
10:12 pm 22:12 Clear 52 11.1 51 10.6 97 97 W 3 6 30.12 1020 10 16 0.00 0.00
10:53 pm 22:53 Clear 49 9.4 49 9.4 100 100 Calm 30.12 1020 10 16 0.00 0.00
10:56 pm 22:56 Mostly Cloudy with Fog 50 10 49 9.4 96 96 Calm 30.12 1020 0 0 0.00 0.00
11:53 pm 23:53 Mostly Cloudy with Fog 49 9.4 48 8.9 97 97 S 5 7 30.13 1020 0 0 0.00 0.00

Powered by AerisWeather